Springfield, MO

11:15 AM CDT on June 25, 2017 (GMT -0500)
Springfield-Branson Regional

Weather History for KSGF - January, 2014

Change the Weather History Date:

Thursday, January 16, 2014

  Actual Average Record
Temperature  
Mean Temperature 40 °F 32 °F  
Max Temperature 49 °F 43 °F 70 °F (1952)
Min Temperature 30 °F 22 °F -11 °F (1977)
Degree Days  
Heating Degree Days 25 33  
Month to date heating degree days 573 525  
Since 1 July heating degree days 2496 2335  
Cooling Degree Days 0 0  
Month to date cooling degree days 0 0  
Year to date cooling degree days 0 0  
Moisture  
Dew Point 21 °F    
Average Humidity 48    
Maximum Humidity 64    
Minimum Humidity 31    
Precipitation  
Precipitation T in 0.08 in 1.23 in (1932)
Month to date precipitation 1.26 1.34  
Year to date precipitation 1.26 1.34  
Snow  
Snow T in - - ()
Month to date snowfall 9.5  
Since 1 July snowfall 23.0  
Snow Depth 0.00 in    
Sea Level Pressure  
Sea Level Pressure 29.90 in    
Wind  
Wind Speed 15 mph (West)    
Max Wind Speed 35 mph    
Max Gust Speed 42 mph    
Visibility 10 miles    
Events      
T = Trace of Precipitation, MM = Missing Value Source: NWS Daily Summary

Daily Weather History Graph

Daily Weather History Graph

Search for Another Location

Airport or City:

Trip Planner

Search our weather history database for the weather conditions in past years. The results will help you decide how hot, cold, wet, or windy it might be!

Date:

Astronomy

Jan. 16, 2014 Rise Set
Actual Time 7:26 AM CST 5:20 PM CST
Civil Twilight 6:57 AM CST 5:49 PM CST
Nautical Twilight 6:25 AM CST 6:21 PM CST
Astronomical Twilight 5:54 AM CST 6:52 PM CST
Moon 6:10 PM CST (1/16) 7:21 AM CST (1/16)
Length of Visible Light 10h 51m
Length of Day
9h 54m
Full, 100% of the Moon is Illuminated
Jan 16
Full
Jan 23
Last Quarter
Jan 30
New
Feb 6
First Quarter
Feb 14
Full

Hourly Weather History & Observations

Time (CST) Temp. Windchill Dew Point Humidity Pressure Visibility Wind Dir Wind Speed Gust Speed Precip Events Conditions
12:52 AM 34.0 °F 23.4 °F 19.0 °F 54% 29.89 in 10.0 mi South 17.3 mph - N/A   Overcast
1:52 AM 35.1 °F 25.5 °F 19.0 °F 52% 29.87 in 10.0 mi South 15.0 mph - N/A   Overcast
2:52 AM 35.1 °F 26.9 °F 21.0 °F 57% 29.85 in 10.0 mi South 11.5 mph - N/A   Overcast
3:52 AM 36.0 °F 31.1 °F 21.9 °F 57% 29.85 in 10.0 mi South 5.8 mph - N/A   Overcast
4:52 AM 43.0 °F 35.7 °F 24.1 °F 47% 29.84 in 10.0 mi WSW 15.0 mph - N/A   Overcast
5:52 AM 39.9 °F 33.9 °F 23.0 °F 51% 29.86 in 10.0 mi West 9.2 mph - N/A   Clear
6:52 AM 36.0 °F 28.5 °F 24.1 °F 62% 29.85 in 10.0 mi WSW 10.4 mph - N/A   Partly Cloudy
7:52 AM 37.0 °F 29.8 °F 24.1 °F 59% 29.86 in 10.0 mi WSW 10.4 mph - N/A   Clear
8:52 AM 39.9 °F 32.1 °F 26.1 °F 58% 29.88 in 10.0 mi West 13.8 mph - N/A   Scattered Clouds
9:52 AM 45.0 °F 37.9 °F 26.1 °F 48% 29.90 in 10.0 mi WNW 16.1 mph 26.5 mph N/A   Partly Cloudy
10:52 AM 46.9 °F - 25.0 °F 42% 29.91 in 10.0 mi NW 19.6 mph - N/A   Clear
11:52 AM 48.0 °F - 21.0 °F 34% 29.89 in 10.0 mi NW 21.9 mph 32.2 mph N/A   Clear
12:52 PM 48.9 °F - 19.9 °F 32% 29.87 in 10.0 mi WNW 21.9 mph 33.4 mph N/A   Scattered Clouds
1:52 PM 46.9 °F - 19.9 °F 34% 29.87 in 10.0 mi WNW 15.0 mph 25.3 mph N/A   Overcast
2:52 PM 46.9 °F - 18.0 °F 32% 29.87 in 10.0 mi WNW 17.3 mph 33.4 mph N/A   Overcast
3:52 PM 46.9 °F - 19.0 °F 33% 29.88 in 10.0 mi West 18.4 mph 31.1 mph N/A   Overcast
4:52 PM 46.0 °F 39.6 °F 17.1 °F 31% 29.89 in 10.0 mi WNW 15.0 mph 23.0 mph N/A   Overcast
5:52 PM 43.0 °F 37.2 °F 19.0 °F 38% 29.89 in 10.0 mi WNW 10.4 mph - N/A   Scattered Clouds
6:52 PM 37.0 °F 31.0 °F 26.1 °F 65% 29.91 in 10.0 mi WSW 8.1 mph - 0.00 in   Scattered Clouds
7:52 PM 39.9 °F 31.4 °F 25.0 °F 55% 29.94 in 10.0 mi NW 16.1 mph 31.1 mph 0.00 in   Overcast
8:52 PM 37.0 °F 28.9 °F 21.9 °F 54% 29.95 in 10.0 mi West 12.7 mph - N/A   Clear
9:52 PM 37.0 °F 28.5 °F 17.1 °F 44% 29.96 in 10.0 mi WNW 13.8 mph 21.9 mph N/A   Clear
10:52 PM 33.1 °F 20.6 °F 18.0 °F 54% 30.00 in 10.0 mi NW 23.0 mph 34.5 mph 0.00 in   Mostly Cloudy
11:52 PM 30.0 °F 20.0 °F 15.1 °F 54% 30.00 in 10.0 mi NW 12.7 mph 23.0 mph N/A   Clear